星链-4179 (STARLINK-4179 )

导读

STARLINK-4179是美国SpaceX公司星链星座中的一颗卫星,于2022年7月24日发射升空,属于星链项目低轨卫星互联网组网的组成部分。星链项目旨在通过大规模低轨卫星群,为全球提供高速宽带互联网服务,这颗卫星承担着拓展全球网络覆盖、补网星座部署的任务。

基本信息
目录编号:
53275
目录名称:
STARLINK-4179
国际标识:
2022-086AK
轨道中心:
EARTH
卫星名称:
星链-4179
卫星全名:
星链-4179 (STARLINK-4179 )
卫星状态:
在轨 (已飞行1503 天)
发射日期:
2022-07-24 UTC
国别 :
美国 (US)
星等 :
--
轨道信息
数据来源 国际轨道数据
星历时间: 2026-09-03T21:34:53+0800
18小时前
查看轨道信息
半长轴: 6837.934km
偏心率: 0.0001412
轨道倾角: 53.159°
近地点辐角 66.666°
升交点赤经 93.322°
平近点角 293.449°
近地点: 458.831km
远地点: 460.763km
周期: 93.788分钟
每日圈数: 15.353785
详细信息
固有亮度:
5
最大亮度:
2.5
卫星平台:
Starlink v1.5
覆盖范围:
全球
运营商:
太空探索技术公司
运营商所在国:
美国
制造商(研发单位):
太空探索技术公司
制造商所在国:
美国
使用方式:
暂无
卫星简介
星链(Starlink)计划是由太空探索技术公司(SpaceX)提出的一个巨型低轨卫星互联网星座项目,计划在2019年至2024年间在太空搭建由约1.2万颗卫星组成的“星链”网络,其中1584颗将部署在地球上空550千米处的近地轨道,并从2020年开始工作。该卫星仍在工作。
2D轨道图
3D轨道图
轨道高度分析图
轨道倾角分析图
轨道综合分析图
查看轨道综合分析图
交会数据列表
事件ID 空间交会对象 最接近时刻(TCA) 交会距离 交会风险概率(CRP) 交会风险指数(CRI) 操作
CDM_260905-075105-327506-337021
2026-09-05T
07:51:30+0000
2.698 km
极远距离
1.360597E-6 低风险 0.38
CDM_260903-213405-327505-901821
2026-09-03T
21:34:32+0000
2.915 km
极远距离
1.155349E-6 低风险 0.36
CDM_260905-141705-327506-467421
2026-09-05T
14:17:27+0000
2.927 km
极远距离
9.448668E-7 极低风险 0.35
CDM_260903-170005-327506-663821
2026-09-03T
17:00:43+0000
2.763 km
极远距离
9.071179E-7 极低风险 0.34